"Pseudo-MPEC" for P10WzvL

Created 2020 Feb 21 6:07:19 UT using Find_Orb

Click here for an explanation of pseudo-MPECs

 
 Astrometry: 
     P10WzvL  C2020 01 22Ib,Txt*HneBvO[e(E[D3'$Astrometry9Gyj_$9]MUD[Sr@UN4ApF51
     P10WzvL  C2020 01 22dJ,O-+eQrl/f9cVredacted;Rgoclick6nK4)X,IhZ^c+gk,tvqIF51
     P10WzvL  C2020 01 22=i51Rkcs;SA@gKRMt@.2]m5K^uE4l%]/ort!d^OYhere7py%AQRpF51
     P10WzvL  C2020 01 22L:\/aqZElZ48_q.jvd.49forAL/@++q7Uwexplanation,7-mcgmF51
     P10WzvL  C2020 01 24.34228 11 15 25.12 -20 54 53.1    ~1O8b 21.5 GVNEOCPI52
     P10WzvL  C2020 01 24.34478 11 15 27.33 -20 54 59.5    ~1O8b 20.9 GVNEOCPI52
     P10WzvL  C2020 01 24.34603 11 15 28.36 -20 55 02.1    ~1O8b 21.6 GVNEOCPI52

Station data:
(F51) Pan-STARRS 1, Haleakala  (N20.707235 W156.255910)  US/Hawaii.
   Observers N. Primak, A. Schultz, S. Watters, J. Thiel, T. Goggia. Measurer
   PS1 Science Consortium. 1.8-m Ritchey-Chrétien + CCD.
(I52) Steward Observatory, Mt. Lemmon Station  (N32.442547 W110.788920)
   US/Arizona.  Observers T. A. Pruyne, B. M. Africano, E. J. Christensen, G.
   A. Farneth, D. C. Fuls, A. R. Gibbs, A. D. Grauer, H. Gröller, J. A.
   Johnson, R. A. Kowalski, S. M. Larson, G. J. Leonard, D. Rankin, R. L.
   Seaman, F. C. Shelly. 1.0-m reflector + CCD.

Orbital elements:  P10WzvL
   Perihelion 2020 Mar 4.856630 TT = 20:33:32 (JD 2458913.356630)
Epoch 2020 Jan 24.0 TT = JDT 2458872.5   Earth MOID: 0.0086   Ve: 0.0839
M 357.74933027                      Me: 0.0309                AutoNEOCP
n   0.05508701     Peri.  119.36535
a   6.84074235     Node   130.90801
e   0.9619078      Incl.   64.65177
P  17.89           H   23.4     G   0.15   q 0.26057850  Q 13.4209062
From 7 observations 2020 Jan. 22-24 (43.6 hr); mean residual 1".66
Residuals in arcseconds: 
200122 F51  1.0+  1.6+    200122 F51  1.0-  1.5-    200124 I52  3.0+  1.0+    
200122 F51  .43+  .42+    200124 I52  4.3-  .93-    
200122 F51  .42-  .49-    200124 I52  1.3+  .05-    

Ephemerides (geocentric):
Date (UTC) HH   RA              Dec         delta   r     elong  mag
---- -- -- --  -------------   -----------  ------ ------ -----  ---
2020 02 21 06  21 53 39.549   +10 58 23.26  .63819 .46761  22.5 26??
2020 02 21 07  21 53 41.459   +10 57 26.98  .63949 .46665  22.4 26??
2020 02 21 08  21 53 43.370   +10 56 30.40  .64080 .46569  22.4 26??
2020 02 21 09  21 53 45.283   +10 55 33.52  .64210 .46473  22.4 26??
2020 02 21 10  21 53 47.197   +10 54 36.33  .64341 .46378  22.4 26??
2020 02 21 11  21 53 49.112   +10 53 38.84  .64472 .46282  22.3 26??
2020 02 21 12  21 53 51.028   +10 52 41.04  .64603 .46186  22.3 26??
2020 02 21 13  21 53 52.947   +10 51 42.92  .64734 .46090  22.3 26??
2020 02 21 14  21 53 54.867   +10 50 44.50  .64865 .45994  22.3 26??
2020 02 21 15  21 53 56.788   +10 49 45.77  .64996 .45899  22.3 26??
2020 02 21 16  21 53 58.712   +10 48 46.73  .65127 .45803  22.2 26??
2020 02 21 17  21 54 00.638   +10 47 47.37  .65259 .45707  22.2 26??
2020 02 21 18  21 54 02.566   +10 46 47.70  .65390 .45611  22.2 26??
2020 02 21 19  21 54 04.496   +10 45 47.72  .65522 .45516  22.2 26??
2020 02 21 20  21 54 06.428   +10 44 47.41  .65654 .45420  22.1 26??
2020 02 21 21  21 54 08.363   +10 43 46.80  .65785 .45325  22.1 26??
2020 02 21 22  21 54 10.301   +10 42 45.86  .65917 .45229  22.1 26??
2020 02 21 23  21 54 12.241   +10 41 44.61  .66049 .45134  22.1 26??
2020 02 22 00  21 54 14.184   +10 40 43.04  .66181 .45038  22.1 26??
2020 02 22 01  21 54 16.130   +10 39 41.14  .66313 .44943  22.0 26??
2020 02 22 02  21 54 18.078   +10 38 38.93  .66446 .44847  22.0 26??
2020 02 22 03  21 54 20.030   +10 37 36.39  .66578 .44752  22.0 26??
2020 02 22 04  21 54 21.985   +10 36 33.52  .66711 .44657  22.0 26??
2020 02 22 05  21 54 23.944   +10 35 30.34  .66843 .44561  21.9 26??
2020 02 22 06  21 54 25.906   +10 34 26.82  .66976 .44466  21.9 25??
2020 02 22 07  21 54 27.871   +10 33 22.98  .67109 .44371  21.9 25??
2020 02 22 08  21 54 29.840   +10 32 18.81  .67242 .44276  21.9 25??
2020 02 22 09  21 54 31.813   +10 31 14.31  .67375 .44181  21.9 25??
2020 02 22 10  21 54 33.790   +10 30 09.48  .67508 .44085  21.8 25??
2020 02 22 11  21 54 35.770   +10 29 04.32  .67641 .43990  21.8 25??
2020 02 22 12  21 54 37.755   +10 27 58.83  .67774 .43895  21.8 25??
2020 02 22 13  21 54 39.744   +10 26 53.00  .67908 .43800  21.8 25??
2020 02 22 14  21 54 41.738   +10 25 46.84  .68041 .43706  21.7 25??
2020 02 22 15  21 54 43.735   +10 24 40.34  .68175 .43611  21.7 25??
2020 02 22 16  21 54 45.738   +10 23 33.50  .68309 .43516  21.7 25??
2020 02 22 17  21 54 47.745   +10 22 26.33  .68442 .43421  21.7 25??
2020 02 22 18  21 54 49.757   +10 21 18.82  .68576 .43326  21.6 25??
2020 02 22 19  21 54 51.774   +10 20 10.96  .68710 .43232  21.6 25??
2020 02 22 20  21 54 53.796   +10 19 02.76  .68845 .43137  21.6 25??
2020 02 22 21  21 54 55.823   +10 17 54.22  .68979 .43042  21.6 25??
2020 02 22 22  21 54 57.855   +10 16 45.34  .69113 .42948  21.6 25??
2020 02 22 23  21 54 59.893   +10 15 36.11  .69248 .42853  21.5 25??
2020 02 23 00  21 55 01.936   +10 14 26.54  .69382 .42759  21.5 25??
2020 02 23 01  21 55 03.985   +10 13 16.61  .69517 .42665  21.5 25??
2020 02 23 02  21 55 06.040   +10 12 06.34  .69652 .42570  21.5 25??
2020 02 23 03  21 55 08.100   +10 10 55.72  .69787 .42476  21.4 25??
2020 02 23 04  21 55 10.167   +10 09 44.74  .69922 .42382  21.4 25??
2020 02 23 05  21 55 12.239   +10 08 33.42  .70057 .42288  21.4 25??